THORAD DELTA 1 DEB, 8395

Orbit data source: Space-Track

THORAD DELTA 1 DEB, 8395 is space debris in SSO originally from a launch on Fri, 15 Nov 1974 UTC launched from the Air Force Western Test Range (AFWTR). Debris objects in space refer to the collection of defunct objects orbiting the Earth. Examples of debris include non-operational satellites, rocket bodies, and fragments generated from explosions, collisions, or faulty payload assembly.

Loading next visibility...
Identifier
8395, 1974-089BX
Orbit
SSO
Country
Flag of USUS
Related business
Manufacturer
Unknown
Mission
Spacecraft
Bus & Motor
Unknown
Mass
Unknown
Launch date (UTC)
1974-11-15 (51 years ago)
Launch vehicle
Unknown
Launch site
Air Force Western Test Range (AFWTR)
Object type
Payload
Rocket body
Debris
Shape & HBR
Unknown shape, 0.1 m
Radar Cross Section
Small (<0.1 m²)

Expand to show TLE details & history
Last TLE update: 1 day ago

TLE from 1 day ago
0 THORAD DELTA 1 DEB
1 08395U 74089BX  26061.17022203  .00001631  00000-0  80191-2 0  9997
2 08395 100.8941  38.3404 0095689  35.9048  30.9930 12.72295987550239
Epoch: 2026-03-02T04:05Z
TLE epoch observation values (Epoch: 2026-03-02T04:05:07.183Z)
Latitude
65.18188°
Longitude
152.63031°
Altitude
1,320.319 km
Speed
7.232 km/s
True Right ascension
00h 55m 30s
True Declination
65° 03' 37"
Sunlit
Object was in daylight at epoch
Visualization orbit readout
Latitude
Unknown
Longitude
Unknown
Altitude
Unknown
Speed
Unknown
Apparent Right ascension
Unknown
Apparent Declination
Unknown
Sunlit
N/A
Visualization observer readout
Local Sidereal Time
15:40:57
Azimuth
Unknown
Elevation
Unknown
Doppler factor
Unknown
Orbital elements
Apogee altitude
1,444.211 km
Perigee altitude
1,295.928 km
Semi-major axis
7,748.207 km
Eccentricity
0.00957
Inclination
100.8941°
RAAN
38.3404°
Arg. of periapsis
35.9048°
True anomaly
31.56347°
Mean anomaly
30.993°
Eccentric anomaly
31.27765°
Mean motion
3.1823 °/min
Orbital period
113.13 mins
BSTAR
0.0080191
Loading maneuver chart data...
Computing Atmospheric mass density...

Documentation

Showing up to 5 results
|